Ellensburg, WA
on Monday, February 11, 2013

Monday
Previous Day Next Day
Daily Summary
 ActualAverage (KYKM)Record (KYKM)
Temperature
Mean Temperature °F 35°F  
Max Temperature 52°F 45°F 61°F (1971)
Min Temperature 26°F 26°F 5°F (1948)
Degree Days
Heating Degree Days 26 30  
Month to date heating degree days 335  
Since 1 July heating degree days 4053  
Cooling Degree Days 0 0  
Month to date cooling degree days 0  
Year to date cooling degree days 0  
Moisture
Dew Point 28°F   
Average Humidity 63    
Maximum Humidity 81    
Minimum Humidity 46    
Precipitation
Precipitation 0.00 in 0.03 in 0.36 in (1958)
Month to date precipitation 0.32  
Year to date precipitation 1.46  
Snow
Snow 0.00 in 0.10 in 2.80 in (1954)
Month to date snowfall 1.2  
Year to date snowfall 6.5  
Since 1 July snowfall 19.5  
Snow Depth in   
Wind
Wind Speed 11 mph   
Max Wind Speed 28 mph   
Max Gust Speed 34 mph   
Visibility 10 miles   
Events     

Key: T is trace of precipitation, MM is missing value
Source: NWS Daily Summary
Time(PST)TemperatureDew PointHumidity Pressure Visibility Wind DirectionWind SpeedGust SpeedPrecipitationEvents Conditions
12:53 AM 26.1°F 21.0°F 81% 30.20 in 10.0 miles NE 4.6 mph - N/A   Clear
1:53 AM 30.9°F 25.0°F 79% 30.20 in 10.0 miles NNW 6.9 mph - N/A   Clear
2:53 AM 28.9°F 21.9°F 75% 30.20 in 10.0 miles Calm Calm - N/A   Clear
3:53 AM 30.9°F 24.1°F 76% 30.18 in 10.0 miles Variable 6.9 mph - N/A   Clear
4:53 AM 27.0°F 21.9°F 81% 30.18 in 10.0 miles WNW 3.5 mph - N/A   Clear
5:53 AM 28.9°F 23.0°F 78% 30.19 in 10.0 miles Calm Calm - N/A   Clear
6:53 AM 28.0°F 21.9°F 78% 30.19 in 10.0 miles WSW 6.9 mph - N/A   Clear
7:53 AM 34.0°F 25.0°F 70% 30.19 in 10.0 miles Calm Calm - N/A   Clear
8:53 AM 39.9°F 28.0°F 63% 30.19 in 10.0 miles WNW 11.5 mph 21.9 mph N/A   Partly Cloudy
9:53 AM 44.1°F 28.9°F 55% 30.17 in 10.0 miles NW 20.7 mph - N/A   Clear
10:53 AM 48.9°F 30.9°F 50% 30.18 in 10.0 miles NW 17.3 mph 25.3 mph N/A   Clear
11:53 AM 50.0°F 30.0°F 46% 30.19 in 10.0 miles Variable 4.6 mph - N/A   Clear
12:21 PM 51.8°F 32.0°F 47% 30.14 in 10.0 miles NW 26.5 mph 32.2 mph N/A   Clear
12:53 PM 52.0°F 32.0°F 47% 30.17 in 10.0 miles NW 27.6 mph 33.4 mph N/A   Clear
1:53 PM 51.1°F 32.0°F 48% 30.17 in 10.0 miles NW 23.0 mph 31.1 mph N/A   Clear
2:53 PM 48.0°F 30.9°F 52% 30.18 in 10.0 miles NW 24.2 mph 34.5 mph N/A   Clear
3:53 PM 46.9°F 30.9°F 54% 30.19 in 10.0 miles NW 24.2 mph 28.8 mph N/A   Clear
4:53 PM 45.0°F 30.9°F 58% 30.20 in 10.0 miles NW 23.0 mph - N/A   Clear
5:53 PM 44.1°F 30.9°F 60% 30.20 in 10.0 miles WNW 26.5 mph 33.4 mph N/A   Clear
6:53 PM 43.0°F 32.0°F 65% 30.22 in 10.0 miles NW 13.8 mph - N/A   Clear
7:53 PM 43.0°F 32.0°F 65% 30.22 in 10.0 miles NW 12.7 mph - N/A   Clear
8:53 PM 43.0°F 30.9°F 62% 30.22 in 10.0 miles NW 12.7 mph - N/A   Clear
9:53 PM 44.1°F 30.0°F 58% 30.21 in 10.0 miles WNW 19.6 mph 27.6 mph N/A   Clear
10:53 PM 44.1°F 30.9°F 60% 30.21 in 10.0 miles WNW 26.5 mph 32.2 mph N/A   Scattered Clouds
11:53 PM 43.0°F 30.9°F 62% 30.22 in 10.0 miles WNW 16.1 mph - N/A   Clear
Moon Phase
Feb. 11 Feb. 17 Feb. 25 Mar. 04 Mar. 11
Sunrise:07:12 AM (PST) Moon Rise:07:30 AM (PST)2/11
Sunset:05:20 PM (PST) Moon Set:07:35 PM (PST)2/11

Copyright © 2014 The Weather Underground, Inc.